COSMOS 252 DEB, 3561

Orbit data source: Space-Track

COSMOS 252 DEB, 3561 is space debris in LEO originally from a launch on Fri, 01 Nov 1968 UTC launched from the Tyuratam Missile And Space Complex (TTMTR). Debris objects in space refer to the collection of defunct objects orbiting the Earth. Examples of debris include non-operational satellites, rocket bodies, and fragments generated from explosions, collisions, or faulty payload assembly.

Loading next visibility...
Identifier
3561, 1968-097P
Orbit
LEO
Country
Flag of CISCIS
Related business
Manufacturer
Unknown
Mission
Spacecraft
Bus & Motor
Unknown
Mass
Unknown
Launch date (UTC)
1968-11-01 (57 years ago)
Launch vehicle
Unknown
Launch site
Tyuratam Missile And Space Complex (TTMTR)
Object type
Payload
Rocket body
Debris
Shape & HBR
Unknown shape, 0.4 m
Radar Cross Section
Medium (>0.1 m² and <1 m²)

Expand to show TLE details & history
Last TLE update: 16 hours ago

TLE from 16 hours ago
0 COSMOS 252 DEB
1 03561U 68097P   25352.39223321  .00004555  00000-0  75659-3 0  9991
2 03561  62.2692 235.3313 0359613 264.2447  91.7518 14.36622233815221
Epoch: 2025-12-18T09:24Z
TLE epoch observation values (Epoch: 2025-12-18T09:24:48.949Z)
Latitude
-0.00004°
Longitude
6.87893°
Altitude
788.496 km
Speed
7.451 km/s
True Right ascension
15h 41m 19s
True Declination
0° 00' 00"
Sunlit
Object was in daylight at epoch
Visualization orbit readout
Latitude
Unknown
Longitude
Unknown
Altitude
Unknown
Speed
Unknown
Apparent Right ascension
Unknown
Apparent Declination
Unknown
Sunlit
N/A
Visualization observer readout
Local Sidereal Time
00:44:35
Azimuth
Unknown
Elevation
Unknown
Doppler factor
Unknown
Orbital elements
Apogee altitude
1,025.609 km
Perigee altitude
511.597 km
Semi-major axis
7,146.74 km
Eccentricity
0.03596
Inclination
62.2692°
RAAN
235.3313°
Arg. of periapsis
264.2447°
True anomaly
95.86156°
Mean anomaly
91.7518°
Eccentric anomaly
93.80768°
Mean motion
3.59237 °/min
Orbital period
100.21 mins
BSTAR
0.00075659
Loading maneuver chart data...
Computing Atmospheric mass density...

Documentation

Showing up to 5 results
|